BON302K FACT-FYWH

Flight info

Callsign BON302K
Flight time N/A
Altitude 35000
Route KODES1A KODES UN186 NEVAR
Aircraft B38M/M-SDE1FGHILORVWXY/HB1

Departure

Time 2026-05-06 08:07
Airport Cape Town International Airport (FACT)

Arrival

Time N/A
Airport Hosea Kutako International Airport (FYWH)
Time Latitude Longitude Altitude Speed Heading
2026-05-06 07:47 -33.97035 18.59852 160 ft 0 kts 255°
2026-05-06 07:58 -33.97035 18.59853 157 ft 1 kts 255°
2026-05-06 07:58 -33.97028 18.59881 157 ft 4 kts 255°
2026-05-06 07:59 -33.97023 18.59906 157 ft 4 kts 247°
2026-05-06 07:59 -33.97008 18.59928 157 ft 4 kts 197°
2026-05-06 07:59 -33.96984 18.59927 157 ft 3 kts 165°
2026-05-06 07:59 -33.96963 18.59920 157 ft 0 kts 165°
2026-05-06 08:01 -33.96964 18.59921 157 ft 1 kts 165°
2026-05-06 08:02 -33.96989 18.59929 157 ft 7 kts 164°
2026-05-06 08:02 -33.97063 18.59952 157 ft 15 kts 166°
2026-05-06 08:02 -33.97171 18.59977 157 ft 17 kts 165°
2026-05-06 08:02 -33.97289 18.60014 157 ft 18 kts 165°
2026-05-06 08:03 -33.97413 18.60054 157 ft 17 kts 164°
2026-05-06 08:03 -33.97527 18.60101 156 ft 18 kts 155°
2026-05-06 08:03 -33.97648 18.60161 156 ft 19 kts 160°
2026-05-06 08:03 -33.97779 18.60218 156 ft 21 kts 160°
2026-05-06 08:04 -33.97917 18.60277 157 ft 19 kts 161°
2026-05-06 08:04 -33.98047 18.60332 157 ft 21 kts 160°
2026-05-06 08:04 -33.98186 18.60393 157 ft 22 kts 161°
2026-05-06 08:04 -33.98335 18.60456 157 ft 23 kts 160°
2026-05-06 08:05 -33.98491 18.60524 157 ft 25 kts 159°
2026-05-06 08:05 -33.98644 18.60589 157 ft 22 kts 160°
2026-05-06 08:05 -33.98772 18.60645 156 ft 15 kts 158°
2026-05-06 08:05 -33.98793 18.60752 157 ft 15 kts 73°
2026-05-06 08:06 -33.98755 18.60868 157 ft 15 kts 33°
2026-05-06 08:06 -33.98651 18.60851 156 ft 18 kts 346°
2026-05-06 08:06 -33.98417 18.60777 156 ft 68 kts 345°
2026-05-06 08:06 -33.97721 18.60558 156 ft 136 kts 345°
2026-05-06 08:07 -33.96684 18.60233 482 ft 164 kts 346°
2026-05-06 08:07 -33.95530 18.59817 1070 ft 177 kts 343°
2026-05-06 08:07 -33.94327 18.59357 1773 ft 188 kts 343°
2026-05-06 08:07 -33.93014 18.58861 2318 ft 208 kts 343°
2026-05-06 08:08 -33.91576 18.58239 2815 ft 234 kts 334°
2026-05-06 08:08 -33.90614 18.57543 3131 ft 253 kts 321°
2026-05-06 08:08 -33.89415 18.55896 3757 ft 272 kts 299°
2026-05-06 08:08 -33.88269 18.53995 4438 ft 293 kts 319°
2026-05-06 08:09 -33.86539 18.52704 5464 ft 294 kts 330°
2026-05-06 08:09 -33.84751 18.51454 6377 ft 302 kts 336°
2026-05-06 08:09 -33.82740 18.50795 7339 ft 299 kts
2026-05-06 08:09 -33.80727 18.51277 8220 ft 296 kts 30°
2026-05-06 08:10 -33.79002 18.52601 9144 ft 296 kts 41°
2026-05-06 08:10 -33.77290 18.54029 10052 ft 303 kts 39°
2026-05-06 08:10 -33.75515 18.55459 10716 ft 315 kts 39°
2026-05-06 08:10 -33.73626 18.56953 11174 ft 334 kts 38°
2026-05-06 08:11 -33.71642 18.58500 11793 ft 345 kts 38°
2026-05-06 08:11 -33.69632 18.60072 12707 ft 345 kts 38°
2026-05-06 08:11 -33.67608 18.61657 13523 ft 350 kts 38°
2026-05-06 08:11 -33.65557 18.63262 14321 ft 353 kts 38°
2026-05-06 08:12 -33.63486 18.64883 15011 ft 358 kts 37°
2026-05-06 08:12 -33.61391 18.66522 15693 ft 362 kts 37°
2026-05-06 08:12 -33.59271 18.68180 16370 ft 365 kts 37°
2026-05-06 08:12 -33.57081 18.69766 16998 ft 373 kts 27°
2026-05-06 08:13 -33.54556 18.70578 17707 ft 381 kts
2026-05-06 08:13 -33.51905 18.70942 18276 ft 387 kts
2026-05-06 08:13 -33.49213 18.71300 18854 ft 390 kts
2026-05-06 08:13 -33.48338 18.71412 19061 ft 390 kts